Weather History for PAPB - June, 2013

Change the Weather History Date:

Tuesday, June 18, 2013

  Actual Average Record
Temperature  
Mean Temperature 46 °F -  
Max Temperature 50 °F 45 °F 57 °F (2001)
Min Temperature 42 °F 38 °F 37 °F (1998)
Degree Days  
Heating Degree Days 19    
Moisture  
Dew Point 45 °F    
Average Humidity 97    
Maximum Humidity 100    
Minimum Humidity 81    
Precipitation  
Precipitation 0.03 in - - ()
Sea Level Pressure  
Sea Level Pressure 30.04 in    
Wind  
Wind Speed 5 mph (NNE)    
Max Wind Speed 14 mph    
Max Gust Speed 17 mph    
Visibility 7 miles    
Events Rain    
Averages and records for this station are not official NWS values.
T = Trace of Precipitation, MM = Missing Value Source: NWS Daily Summary

Daily Weather History Graph

Daily Weather History Graph

Search for Another Location

Airport or City:

Trip Planner

Search our weather history database for the weather conditions in past years. The results will help you decide how hot, cold, wet, or windy it might be!

Date:

Astronomy

Jun. 18, 2013 Rise Set
Actual Time 6:26 AM AKDT 12:13 AM AKDT
Civil Twilight 5:21 AM AKDT 1:18 AM AKDT
Nautical Twilight 3:52 AM AKDT 2:47 AM AKDT
Astronomical Twilight Sun does not rise Sun does not rise
Moon 6:26 PM AKDT (6/18) 3:37 AM AKDT (6/18)
Length of Visible Light 19h 57m
Length of Day
17h 46m
Waxing Gibbous, 72% of the Moon is Illuminated
Jun 18
Waxing Gibbous
Jun 23
Full
Jun 29
Last Quarter
Jul 7
New
Jul 15
First Quarter

Hourly Weather History & Observations

Time (AKDT) Temp. Windchill Dew Point Humidity Pressure Visibility Wind Dir Wind Speed Gust Speed Precip Events Conditions
12:20 AM 44.6 °F - 44.6 °F 100% 30.10 in 10.0 mi Calm Calm - N/A   Overcast
12:53 AM 44.1 °F - 44.1 °F 100% 30.06 in 10.0 mi Calm Calm - N/A   Overcast
1:53 AM 44.1 °F 41.5 °F 43.0 °F 96% 30.07 in 10.0 mi ENE 4.6 mph - N/A   Overcast
2:25 AM 44.6 °F 42.2 °F 42.8 °F 93% 30.10 in 10.0 mi ENE 4.6 mph - N/A   Overcast
2:53 AM 43.0 °F 39.5 °F 43.0 °F 100% 30.07 in 8.0 mi NE 5.8 mph - N/A   Overcast
3:53 AM 44.1 °F 41.5 °F 44.1 °F 100% 30.06 in 7.0 mi NE 4.6 mph - N/A   Overcast
4:53 AM 44.1 °F 41.5 °F 44.1 °F 100% 30.05 in 8.0 mi NNE 4.6 mph - 0.00 in Rain Light Rain
5:53 AM 44.1 °F - 44.1 °F 100% 30.06 in 7.0 mi Calm Calm - 0.02 in Rain Light Rain
6:13 AM 44.6 °F - 44.6 °F 100% 30.08 in 10.0 mi Calm Calm - 0.00 in   Overcast
6:53 AM 43.0 °F 39.5 °F 43.0 °F 100% 30.05 in 10.0 mi NE 5.8 mph - 0.00 in   Overcast
7:34 AM 42.8 °F 41.1 °F 37.4 °F 81% 30.08 in 9.0 mi NNE 3.5 mph - N/A   Overcast
7:53 AM 43.0 °F 40.3 °F 43.0 °F 100% 30.05 in 8.0 mi NE 4.6 mph - 0.01 in   Overcast
8:10 AM 42.8 °F 40.1 °F 42.8 °F 100% 30.08 in 9.0 mi NE 4.6 mph - N/A   Overcast
8:46 AM 44.6 °F - 44.6 °F 100% 30.08 in 8.0 mi Calm Calm - N/A   Overcast
8:53 AM 44.1 °F - 44.1 °F 100% 30.05 in 5.0 mi Calm Calm - N/A   Overcast
9:20 AM 44.6 °F - 44.6 °F 100% 30.08 in 9.0 mi Calm Calm - N/A   Overcast
9:53 AM 45.0 °F 41.8 °F 45.0 °F 100% 30.05 in 10.0 mi NE 5.8 mph - N/A   Overcast
10:16 AM 44.6 °F 40.7 °F 44.6 °F 100% 30.08 in 9.0 mi NNE 6.9 mph - N/A   Overcast
10:23 AM 44.6 °F 39.7 °F 44.6 °F 100% 30.08 in 9.0 mi NNE 9.2 mph - N/A   Overcast
10:53 AM 45.0 °F 41.2 °F 45.0 °F 100% 30.04 in 3.0 mi NNE 6.9 mph - N/A   Overcast
11:14 AM 44.6 °F 42.2 °F 44.6 °F 100% 30.08 in 1.8 mi NNE 4.6 mph - N/A   Overcast
11:32 AM 44.6 °F 38.4 °F 44.6 °F 100% 30.08 in 1.0 mi NNE 12.7 mph - N/A   Overcast
11:44 AM 44.6 °F 39.2 °F 44.6 °F 100% 30.08 in 1.2 mi NNE 10.4 mph - N/A   Overcast
11:53 AM 45.0 °F 40.6 °F 45.0 °F 100% 30.04 in 1.8 mi NNE 8.1 mph - N/A   Overcast
12:02 PM 46.4 °F 42.4 °F 46.4 °F 100% 30.08 in 3.0 mi NNE 8.1 mph - N/A   Overcast
12:11 PM 46.4 °F 41.9 °F 46.4 °F 100% 30.07 in 6.0 mi NNE 9.2 mph - N/A   Overcast
12:53 PM 46.9 °F - 46.9 °F 100% 30.04 in 8.0 mi NNE 9.2 mph - N/A   Overcast
1:53 PM 48.0 °F - 46.9 °F 96% 30.02 in 10.0 mi NNE 13.8 mph - N/A   Overcast
2:53 PM 48.9 °F - 46.9 °F 93% 30.01 in 10.0 mi NNE 12.7 mph - N/A   Overcast
3:53 PM 50.0 °F - 46.9 °F 89% 30.01 in 8.0 mi NNE 12.7 mph - N/A   Overcast
4:02 PM 50.0 °F - 46.4 °F 87% 30.04 in 10.0 mi NNE 13.8 mph - N/A   Overcast
4:53 PM 48.0 °F - 46.0 °F 93% 30.00 in 6.0 mi NNE 12.7 mph - N/A   Overcast
5:38 PM 50.0 °F - 46.4 °F 87% 30.03 in 10.0 mi NNE 11.5 mph - N/A   Overcast
5:53 PM 50.0 °F - 46.0 °F 86% 29.99 in 10.0 mi North 10.4 mph - N/A   Overcast
6:53 PM 48.9 °F - 46.0 °F 90% 29.98 in 10.0 mi North 12.7 mph 17.3 mph N/A   Overcast
7:49 PM 46.4 °F 44.3 °F 44.6 °F 93% 30.01 in 9.0 mi Variable 4.6 mph - N/A   Overcast
7:53 PM 46.9 °F - 45.0 °F 93% 29.97 in 10.0 mi North 10.4 mph 17.3 mph N/A   Overcast
8:53 PM 46.9 °F - 45.0 °F 93% 29.97 in 7.0 mi North 9.2 mph - N/A   Overcast
9:27 PM 46.4 °F 41.1 °F 44.6 °F 93% 30.00 in 4.0 mi NW 11.5 mph - N/A   Overcast
9:53 PM 45.0 °F 41.8 °F 45.0 °F 100% 29.96 in 5.0 mi Variable 5.8 mph 17.3 mph N/A   Overcast
10:53 PM 44.1 °F 40.8 °F 44.1 °F 100% 29.95 in 10.0 mi Variable 5.8 mph - N/A   Overcast
11:17 PM 44.6 °F 39.7 °F 44.6 °F 100% 29.98 in 6.0 mi NW 9.2 mph - N/A   Overcast
11:53 PM 43.0 °F 38.2 °F 43.0 °F 100% 29.95 in 2.5 mi NW 8.1 mph - N/A   Overcast